RH
20 21 22 23 25 25 26 26 26 26 27 27 28 29 28 25 27 27 24 21 25 33 32 30 34 37 36 36 37 39 40 41 42 42 42 44 43 43 46 47 49 45 38 40 42 41 40 41 48 54 49 44 42 41 40 35 29 23 20 21 24 24 24 23 24 24 23 26 28 26 27 29 28 30 34 32 30 35 35 27 25 27 29 33 36
22 23 22 22 24 24 24 24 24 25 25 25 27 28 29 27 26 25 24 21 21 27 30 31 34 37 37 37 38 40 44 47 46 44 46 49 47 42 42 41 39 37 36 38 40 39 36 33 43 53 46 38 37 33 27 24 20 18 20 24 26 25 24 24 24 23 25 29 30 25 23 27 32 35 36 33 32 36 37 29 24 25 27 29 31
24 26 24 21 22 22 23 23 23 24 24 25 26 27 27 26 24 24 25 24 22 22 25 30 35 38 38 38 40 42 47 51 49 48 49 51 52 45 45 42 34 32 35 35 35 33 30 31 43 49 41 33 29 23 22 23 21 21 25 26 25 25 24 25 26 25 25 25 25 25 25 29 35 39 39 38 39 41 40 33 25 24 27 28 29
24 26 25 23 22 21 22 22 23 23 24 25 26 27 27 24 21 21 24 24 23 22 23 30 37 37 35 38 45 47 48 51 50 49 46 48 52 45 45 46 35 32 36 35 33 30 28 33 40 40 33 28 23 20 22 23 24 25 26 26 26 27 28 29 28 26 25 24 24 26 27 30 35 41 45 43 42 44 45 38 28 24 24 25 27
25 25 25 23 23 22 21 22 22 23 24 25 26 27 27 25 21 20 22 22 23 23 25 33 36 35 35 38 43 45 46 49 47 47 47 51 54 43 41 43 36 35 37 33 33 32 31 31 32 31 28 26 23 22 25 25 26 27 27 28 28 29 31 30 25 25 26 25 23 25 32 41 44 47 47 42 42 47 48 40 30 27 26 25 26
28 28 26 24 24 23 24 24 24 23 24 25 27 27 27 27 23 20 21 21 21 23 27 33 34 35 38 36 35 38 42 43 41 44 49 52 49 41 40 41 38 38 33 28 32 32 28 26 25 26 28 28 25 23 23 24 25 27 28 29 28 26 27 25 22 24 26 25 24 24 29 37 42 45 42 40 43 45 45 42 37 32 27 26 27
30 31 29 28 27 26 27 28 27 26 25 26 26 26 27 28 25 21 21 20 21 23 26 30 32 36 38 34 34 37 38 38 38 42 46 45 42 40 41 43 38 35 30 26 28 28 25 24 24 26 29 31 29 23 22 25 26 28 29 29 28 25 24 25 22 22 24 27 29 30 31 33 35 39 37 39 44 42 39 40 40 38 33 33 32
29 31 31 31 31 30 29 30 31 30 30 30 29 28 27 29 27 22 20 19 20 22 25 27 30 36 37 34 37 39 38 40 40 41 42 40 40 40 42 43 34 28 30 29 28 29 29 29 28 30 33 33 31 29 27 28 28 29 30 29 26 23 24 26 23 22 24 28 35 40 42 41 38 37 34 34 36 35 37 41 43 44 41 40 39
31 32 33 33 33 32 31 32 33 33 33 34 34 32 29 29 29 24 19 19 20 21 25 28 31 35 35 33 37 40 38 40 40 39 39 38 37 37 38 39 30 26 30 29 30 33 32 32 32 34 37 35 33 34 32 30 29 30 31 29 26 25 26 26 23 24 25 29 39 45 46 45 41 38 35 34 34 32 38 44 43 42 43 45 46
34 35 35 34 33 33 33 34 35 36 36 35 36 35 33 31 29 24 20 20 21 21 22 27 34 37 36 34 35 37 37 38 38 34 33 32 31 32 34 34 30 28 30 29 31 34 34 35 38 40 40 38 37 37 36 34 32 31 31 30 29 29 28 26 25 26 27 30 37 42 45 44 39 37 38 41 40 35 35 40 42 43 45 46 44
34 35 36 35 34 33 33 33 35 37 37 37 37 37 36 34 29 25 22 21 21 21 21 24 30 34 33 32 32 34 35 35 33 30 31 31 29 31 34 34 32 31 33 34 33 35 38 41 43 44 42 40 41 40 38 37 35 33 32 30 30 30 29 29 28 27 28 29 30 35 40 39 36 34 35 40 40 34 32 36 41 43 40 38 40
38 34 36 36 35 35 33 33 34 36 37 38 39 39 38 35 31 27 23 21 20 20 20 21 24 26 27 28 28 30 32 31 29 30 33 34 32 34 36 35 34 33 35 38 38 40 45 46 46 46 45 45 47 46 43 41 38 35 34 32 31 31 30 30 29 28 30 30 29 32 34 35 37 34 30 33 35 32 32 35 37 37 35 37 42
44 35 34 37 36 36 35 34 34 35 36 37 38 40 40 37 33 30 24 19 20 21 21 21 22 23 23 25 26 27 29 28 29 32 36 37 37 39 40 37 36 35 36 39 41 45 49 48 46 46 45 44 46 50 50 47 44 42 39 35 33 33 32 31 30 30 30 30 29 31 30 31 36 36 33 34 36 35 38 39 38 37 37 40 42
45 37 34 35 36 38 38 38 37 36 35 35 35 36 38 38 37 34 27 22 23 24 24 24 24 25 25 25 26 26 28 29 30 34 39 41 40 41 43 42 40 39 39 41 44 47 49 48 48 48 47 43 42 46 50 49 48 49 49 42 35 33 34 33 31 30 30 31 30 31 32 32 35 38 39 39 39 41 44 46 44 43 43 43 44
40 37 34 34 36 38 40 41 40 38 35 33 33 33 34 37 37 36 31 27 27 28 28 28 27 28 28 27 26 27 30 32 34 37 42 45 45 44 45 47 46 46 46 48 51 51 52 53 54 55 53 47 44 44 50 52 49 48 54 52 42 36 34 34 33 31 32 32 34 35 37 38 38 40 41 40 40 41 43 47 47 47 48 47 47
36 36 34 35 36 38 39 39 39 38 36 33 33 33 33 35 37 36 32 28 30 31 31 31 30 31 30 28 28 30 33 36 38 39 42 44 46 45 44 44 47 52 55 57 60 58 57 57 58 58 57 52 49 45 50 59 56 50 54 58 54 45 39 36 34 32 33 35 37 39 41 43 45 45 45 43 42 43 44 47 48 48 49 49 48
33 34 34 35 36 37 37 37 37 37 37 35 34 34 34 35 37 37 34 31 32 33 33 32 31 31 29 29 31 33 35 38 41 42 43 43 44 44 45 45 48 55 60 62 64 61 57 58 58 58 56 55 55 51 51 61 65 59 59 62 61 55 48 44 39 34 34 35 37 38 39 41 43 43 42 42 44 46 46 46 47 48 49 49 47
35 33 34 36 36 37 38 38 39 39 40 38 36 35 34 34 36 37 36 34 35 34 33 33 31 30 30 32 33 35 36 37 41 45 45 45 46 46 49 53 56 59 62 63 64 60 56 57 58 59 59 57 58 59 58 61 67 69 69 68 66 62 56 53 50 44 38 35 35 36 36 38 41 44 44 44 46 48 46 45 47 47 48 48 48
42 34 33 36 36 37 38 39 40 42 43 41 37 35 34 33 33 35 35 34 36 36 33 31 31 31 31 32 34 36 39 38 39 44 47 50 53 55 57 60 64 64 63 61 60 59 59 59 57 59 65 64 62 65 65 64 67 71 74 73 71 70 65 60 57 54 48 41 36 36 37 38 40 45 47 47 48 48 47 47 47 47 48 48 47
43 36 32 35 35 36 37 38 39 42 44 43 39 35 33 33 32 32 33 34 36 37 36 32 32 33 32 31 34 37 39 39 38 42 48 54 58 61 64 66 67 64 59 56 57 60 64 63 61 63 68 69 66 67 69 69 70 73 75 76 76 75 73 69 64 60 56 50 43 39 40 41 43 47 50 49 49 50 50 51 50 49 49 49 46
36 35 32 33 35 36 37 38 39 40 42 43 42 37 33 33 32 30 30 33 34 36 38 34 31 32 31 31 33 34 37 42 44 46 51 55 59 61 64 69 69 62 56 54 56 61 64 63 63 65 63 62 63 65 66 68 68 71 74 75 76 75 72 71 70 66 62 58 53 47 45 47 52 56 56 53 52 53 52 50 51 52 51 50 47
30 34 33 32 34 36 37 38 38 39 41 43 42 38 33 32 32 30 28 29 31 33 35 33 30 29 30 30 31 32 37 44 52 56 56 55 56 56 58 64 65 60 56 57 58 62 64 59 56 56 54 55 61 63 63 62 60 62 66 68 72 74 72 71 71 70 69 65 60 56 52 52 57 61 61 59 56 53 50 49 49 50 50 48 46
29 35 34 31 34 35 35 35 36 37 39 42 42 39 34 30 31 31 28 27 29 32 35 32 27 26 28 28 30 34 40 46 55 62 59 56 59 58 57 60 61 59 58 59 61 61 61 55 47 45 48 53 59 59 58 58 58 60 61 62 68 75 77 75 70 69 71 70 65 62 60 58 60 63 62 60 58 54 51 50 50 49 48 46 44
28 33 33 31 33 34 33 33 33 34 37 40 42 40 35 29 29 32 31 30 30 34 37 34 28 25 26 28 32 36 42 50 57 58 55 58 64 62 58 57 56 57 56 57 58 58 57 55 47 38 40 47 52 54 54 56 58 60 59 60 66 72 75 75 69 65 69 73 71 67 64 62 62 63 62 61 61 58 54 54 53 51 51 49 47
29 32 32 31 31 31 31 32 31 32 35 40 41 39 35 30 28 31 33 33 32 32 36 38 35 31 29 29 33 39 46 53 55 52 53 58 62 60 58 56 52 53 53 51 52 52 51 51 44 35 33 37 40 45 49 51 53 55 53 54 61 67 70 71 67 63 68 74 76 74 68 64 63 65 64 65 65 63 58 57 56 56 59 59 59
32 33 31 30 29 28 29 30 30 32 35 39 39 38 35 30 27 31 34 35 36 35 36 38 40 40 37 34 35 42 49 51 48 48 51 55 57 55 54 51 47 46 45 43 42 42 42 42 39 35 33 33 34 38 41 43 45 49 48 49 55 60 65 68 64 64 70 75 79 79 74 70 69 67 66 68 69 68 64 60 59 60 65 67 68
34 34 31 29 28 26 28 31 32 35 37 39 40 38 35 30 27 30 34 35 36 36 35 36 41 45 45 43 43 47 48 47 48 50 50 50 52 49 45 43 43 42 41 39 38 38 39 40 38 37 35 35 37 39 39 40 42 46 47 48 54 59 63 65 61 62 71 77 80 80 77 76 77 74 71 71 73 74 70 64 61 62 64 66 67
33 34 31 30 28 27 28 32 35 38 40 40 39 37 32 29 28 30 32 34 34 35 35 36 41 45 48 49 51 49 44 42 46 48 46 44 44 43 42 41 41 40 39 40 38 37 39 40 40 42 41 38 40 43 43 41 43 47 49 50 55 58 60 62 60 60 66 73 78 82 81 81 81 79 77 76 75 77 76 70 67 68 69 71 70
30 31 30 29 29 28 30 35 39 40 40 38 37 34 31 30 31 30 31 33 33 34 36 36 40 44 47 50 50 48 44 41 40 41 41 41 38 39 41 41 41 40 38 37 36 37 40 41 42 47 48 44 43 45 46 44 45 48 51 53 55 56 58 63 65 64 66 70 76 81 82 82 83 84 85 83 79 79 80 78 78 79 79 78 77
28 27 28 27 29 32 35 40 43 42 40 39 37 34 32 31 32 31 32 33 33 35 36 36 39 43 46 49 49 48 48 45 41 39 42 43 41 40 41 42 44 44 41 38 38 39 43 46 48 52 53 50 48 47 47 47 47 49 52 54 56 56 57 62 67 68 69 72 74 77 78 79 82 87 89 87 84 81 81 80 83 86 86 85 84
27 27 28 28 30 35 39 43 44 42 40 41 39 37 33 31 31 31 31 33 34 36 37 37 39 42 45 48 48 48 49 47 44 44 46 46 45 43 43 45 46 45 42 40 39 40 45 50 55 59 58 55 52 48 46 46 46 48 50 53 57 59 58 62 67 69 70 72 73 74 75 76 78 82 85 84 82 82 80 79 80 84 87 87 87
26 26 27 28 30 33 38 43 43 41 42 42 41 38 34 31 31 30 31 34 35 37 38 39 40 42 45 47 47 47 47 47 47 48 48 47 47 47 48 50 50 47 45 43 40 41 45 50 56 61 61 58 56 51 47 45 45 48 49 51 58 64 62 63 68 70 71 74 75 74 74 75 75 77 80 80 78 79 80 80 80 80 82 85 88
24 25 26 29 30 30 34 41 42 41 42 42 41 40 36 33 31 30 31 32 34 36 39 41 43 45 46 47 47 47 48 49 50 50 51 51 52 54 56 57 56 52 48 45 40 40 44 49 53 59 61 61 60 55 50 48 47 48 50 53 61 68 69 68 70 71 72 75 77 76 75 76 77 76 76 77 76 77 79 80 79 78 79 82 85
21 24 26 29 31 31 34 40 42 40 40 41 41 41 38 34 32 32 32 31 33 36 39 42 44 46 48 48 48 49 50 49 49 51 55 57 58 60 61 60 57 53 50 47 41 40 45 49 52 58 61 63 65 61 55 53 50 49 51 55 63 71 75 73 72 74 76 76 77 77 76 77 77 76 76 77 78 78 79 79 79 79 80 82 83
20 24 27 29 32 33 35 39 41 39 39 41 41 41 38 35 34 36 35 33 34 38 41 44 46 48 49 48 48 50 51 50 52 57 62 64 64 63 61 58 55 53 52 49 44 44 49 51 54 60 63 66 68 64 59 56 53 52 53 58 66 72 74 74 75 76 75 75 75 74 74 77 78 77 77 78 78 78 77 77 76 76 77 80 83
23 26 28 29 30 31 33 36 39 39 39 40 41 40 39 36 37 39 39 38 40 43 46 49 51 53 54 51 50 53 54 53 57 61 64 65 63 60 58 56 55 53 52 50 49 51 54 57 60 62 66 69 67 63 61 57 54 54 57 62 68 72 73 74 74 71 70 73 76 76 76 78 78 74 72 72 74 75 72 70 69 70 73 75 78
22 25 27 28 28 29 32 35 37 39 39 40 40 40 40 40 40 41 41 43 45 47 51 53 53 54 54 53 55 57 57 56 57 59 61 61 59 56 56 56 55 54 53 52 54 58 61 65 66 66 69 70 64 60 61 58 56 58 58 60 65 69 72 72 69 70 72 74 75 74 74 75 72 69 67 67 68 67 64 62 63 66 69 69 68
19 22 26 29 29 30 34 35 35 36 38 40 42 43 43 43 42 43 44 46 47 50 52 53 52 52 53 54 55 55 55 55 56 58 59 59 58 57 58 58 58 57 56 54 55 60 65 69 69 68 70 68 62 60 62 60 60 61 60 59 61 65 70 68 65 71 76 75 73 72 71 70 67 63 61 60 58 56 55 55 56 57 56 56 57
16 20 25 29 30 32 35 35 35 36 39 41 43 44 44 44 44 45 46 46 48 51 52 52 51 52 53 52 51 51 52 53 53 56 58 59 60 61 60 60 60 59 57 55 57 62 66 68 68 68 67 65 62 63 64 62 62 61 60 62 63 66 69 65 63 73 78 73 69 69 66 63 59 55 54 53 51 49 48 47 46 46 47 50 52
15 20 24 28 31 33 34 36 37 37 39 41 43 43 44 45 46 46 46 48 50 50 48 47 47 46 45 47 48 51 54 55 55 58 61 61 61 62 61 60 59 57 57 58 61 64 65 65 66 65 63 61 61 64 64 62 61 59 60 64 67 67 66 63 66 76 77 68 63 62 61 59 55 52 51 48 47 46 44 43 42 44 48 50 50
17 21 25 29 32 35 36 36 37 37 38 40 43 45 46 47 47 48 49 50 49 44 40 38 37 37 39 44 50 53 57 61 63 63 63 61 60 60 59 58 56 54 56 59 61 62 62 61 60 58 57 57 57 62 66 65 61 59 60 63 64 63 62 63 67 73 71 66 64 63 60 57 54 52 49 46 46 45 44 44 45 46 48 50 50
19 24 28 31 33 35 36 35 36 37 38 40 43 46 47 47 47 46 44 42 39 36 34 34 35 37 39 45 53 56 59 64 67 65 62 60 58 56 54 53 52 52 54 56 56 55 53 51 51 50 52 53 54 59 64 64 61 59 59 59 58 57 60 66 70 70 68 66 65 63 60 58 54 50 47 45 45 44 43 45 47 48 50 50 50
24 27 31 32 33 34 35 36 38 39 40 43 45 45 42 41 41 39 36 34 33 33 35 36 38 39 41 48 56 57 56 60 65 65 61 58 55 52 49 49 50 51 51 50 48 46 44 44 45 46 49 51 54 56 60 60 59 57 55 52 51 54 60 65 66 66 65 63 61 59 57 55 49 44 42 42 42 42 44 47 50 51 51 50 48
28 29 31 33 33 35 37 38 37 37 39 41 39 35 35 38 40 39 36 34 35 38 42 42 41 42 45 52 59 58 57 61 64 62 59 54 50 48 45 43 43 44 45 46 45 44 43 42 43 47 50 52 55 58 58 55 51 48 47 46 47 51 57 59 59 61 61 60 57 53 50 47 43 40 40 41 42 44 48 51 53 52 49 46 44
28 28 30 32 33 34 35 34 34 35 36 35 33 34 38 43 44 41 38 36 38 44 48 47 46 49 52 56 59 61 62 63 61 59 55 49 44 43 40 37 37 39 42 45 46 45 45 44 44 47 51 54 59 61 55 49 45 44 45 46 47 50 53 55 57 60 61 59 54 50 46 44 41 39 40 42 46 50 52 53 51 48 44 41 41
30 30 31 32 34 36 36 36 38 39 38 37 37 40 42 41 39 38 37 38 40 44 48 50 54 57 57 57 59 62 63 62 60 57 51 44 40 40 38 36 36 39 44 47 46 46 46 47 47 49 52 57 62 61 53 46 46 49 49 48 49 51 54 56 57 59 59 57 53 49 46 43 40 40 43 46 50 52 52 51 48 45 43 43 45
33 34 35 37 39 40 40 40 41 40 38 38 39 39 37 36 36 38 39 40 40 43 49 56 59 58 57 57 59 61 62 61 60 57 50 42 40 40 38 37 38 42 46 47 47 46 47 48 51 53 54 57 61 59 55 53 52 52 51 50 51 53 55 56 56 55 54 54 53 50 47 44 42 42 46 49 50 50 48 48 48 48 48 49 50
39 38 38 38 38 38 39 40 40 38 39 42 41 39 37 38 40 41 41 43 47 51 56 59 57 55 56 57 58 60 61 59 58 57 52 47 43 40 39 40 42 45 48 48 47 47 47 49 53 55 56 59 60 58 59 60 56 51 51 52 53 53 52 52 54 54 54 54 53 50 46 44 44 47 50 52 51 51 50 49 49 50 51 51 50
47 46 43 40 40 40 42 44 44 44 46 48 45 42 42 44 46 46 45 48 55 59 59 56 53 55 58 59 60 62 62 60 58 56 54 50 46 41 39 42 45 48 50 51 51 51 51 52 54 55 56 58 58 56 58 57 51 49 50 50 49 48 48 50 53 54 52 52 51 49 48 49 51 54 55 53 51 51 52 52 53 53 52 50 48
48 49 49 48 48 48 48 49 51 51 51 49 48 49 50 51 53 54 52 52 55 58 57 54 54 56 59 61 61 60 60 59 57 55 53 50 46 42 41 44 48 49 48 48 49 52 54 55 55 54 53 54 55 54 52 48 43 42 44 42 41 42 44 47 50 50 49 50 52 54 55 57 57 56 55 53 52 51 51 53 55 55 53 50 47
49 48 48 49 51 51 50 51 53 55 54 52 52 54 55 55 56 57 54 52 55 57 55 54 56 58 60 61 59 57 58 57 55 55 54 49 43 43 45 47 48 47 47 46 48 51 55 56 55 53 51 50 48 46 43 40 39 40 41 40 41 42 43 44 46 47 48 51 55 58 58 58 56 54 53 53 52 49 50 53 55 54 53 51 48